Regional Weather Roundup
Issued by NWS

Home | Current Version | Previous Version | Text Only | Print | Product List | Glossary Off
Versions: 1 2 3 4 5 6 7 8 9 10 11 12 13 14 15 16 17 18 19 20 21 22 23 24 25 26 27 28 29 30 31 32 33 34 35 36 37 38 39 40 41 42 43 44 45 46 47 48 49 50

000
ASUS43 KLOT 230100
RWRIL

ILLINOIS REGIONAL WEATHER ROUNDUP
NATIONAL WEATHER SERVICE CHICAGO/ROMEOVILLE IL
800 PM CDT FRI MAY 22 2015

NOTE: "FAIR" INDICATES FEW OR NO CLOUDS BELOW 12,000 FEET WITH NO
SIGNIFICANT WEATHER AND/OR OBSTRUCTIONS TO VISIBILITY.

* THESE STATIONS ARE NOT UNDER NWS QUALITY CONTROL. THEY ALSO MAY NOT
  REPORT WEATHER SUCH AS PRECIPITATION OR FOG.

ILZ001-002-007-009-015-016-024-230200-
NORTHWEST ILLINOIS

CITY           SKY/WX    TMP DP  RH WIND       PRES   REMARKS
MOLINE         CLOUDY    68  48  48 CALM      30.19R
STERLING*      MOCLDY    70  43  37 N5        30.21R
$$

ILZ003-004-008-010-011-017-018-230200-
NORTH CENTRAL ILLINOIS

CITY           SKY/WX    TMP DP  RH WIND       PRES   REMARKS
ROCKFORD       CLOUDY    64  37  36 E10       30.25R
FREEPORT*      CLOUDY    67  41  38 CALM      30.23R
$$

ILZ005-006-012>014-019>023-230200-
NORTHEAST ILLINOIS

CITY           SKY/WX    TMP DP  RH WIND       PRES   REMARKS
CHICAGO-OHARE  CLOUDY    55  27  34 E8        30.26R
CHICAGO-MIDWAY CLOUDY    56  30  37 E12       30.27R
AURORA         CLOUDY    61  29  29 E10       30.24R
WAUKEGAN       MOCLDY    48  31  51 E7        30.27R
DUPAGE AIRPORT CLOUDY    58  29  33 E10       30.24R
WHEELING       CLOUDY    53  26  35 E3        30.29R
NORTHERLY ISL    N/A     50  34  54 NE8         N/A
$$

LMZ740>746-230200-
SOUTHERN LAKE MICHIGAN

STATION/POSITION SKY/WX   TEMP    WIND        PRES    VSBY  WAVE
                          AIR SEA DIR/SP/G                  HT/PER
                          (F)     (DEG/KT/KT) (MB)    (MI)  (FT/S)
SOUTHERN BUOY              42 38  140/  6/  6 1026.7R         0
HARRISON CRIB              48      90/  9/ 10   N/A
BURNHAM HARBOR             49      70/  5/  7   N/A
CALUMET HARBOR             51      50/  9/ 10   N/A
BURNS HARBOR               53      70/ 14/ 16 1025.1F
MICHIGAN CITY              52      30/ 11/ 12   N/A
MICHIGAN CITY 6N           51 51   90/ 10/ 12   N/A           2/ 3
ST. JOSEPH                 53 53   60/ 10/ 10   N/A           2/ 3
$$

ILZ025>027-034>036-040-047-049-050-058-095>099-230200-
WEST-CENTRAL ILLINOIS

CITY           SKY/WX    TMP DP  RH WIND       PRES   REMARKS
QUINCY         CLOUDY    66  53  63 SW6       30.23R
MACOMB*        CLOUDY    69  44  40 SW5       30.24R
$$

ILZ028>032-037-038-041>044-048-051>054-059>061-230200-
CENTRAL ILLINOIS

CITY           SKY/WX    TMP DP  RH WIND       PRES   REMARKS
DECATUR        CLOUDY    72  43  35 SW5       30.22R
PEORIA         CLOUDY    73  44  35 SW6       30.21R
LINCOLN*       CLOUDY    73  40  29 CALM      30.19R
SPRINGFIELD    CLOUDY    73  45  36 SW7       30.22R
TAYLORVILLE    NOT AVBL
$$

ILZ033-039-045-046-055>057-062-063-230200-
EAST-CENTRAL ILLINOIS

CITY           SKY/WX    TMP DP  RH WIND       PRES   REMARKS
CHAMPAIGN      MOCLDY    72  41  32 W5        30.21R
MATTOON        MOCLDY    70  45  40 SW7       30.21R
$$

ILZ079-100>102-230200-
SOUTHWEST ILLINOIS

CITY           SKY/WX    TMP DP  RH WIND       PRES   REMARKS
CAHOKIA*       CLOUDY    70  50  49 W3        30.23R
$$

ILZ064>066-069>071-074>076-080>082-084>086-088>090-092>094-230200-
SOUTH-CENTRAL ILLINOIS

CITY           SKY/WX    TMP DP  RH WIND       PRES   REMARKS
CARBONDALE     CLOUDY    65  55  70 SW5       30.25S
MT. VERNON     CLOUDY    64  54  68 S3        30.26R
$$

ILZ067-068-072-073-078-083-087-091-230200-
SOUTHEAST ILLINOIS

CITY           SKY/WX    TMP DP  RH WIND       PRES   REMARKS
LAWRENCEVILLE  CLOUDY    68  51  54 SW7       30.24R
FLORA*         CLOUDY    68  55  63 SW3       30.25R
HARRISBURG*    CLOUDY    67  55  63 SW5       30.27R
CARMI*         CLOUDY    68  49  50 SW5       30.25R
$$

ABBREVIATIONS USED IN REMARKS
   TC - TEMPERATURE IN CELSIUS
  WCI - WIND CHILL INDEX
   HX - HEAT INDEX
  VSB - VISIBILITY
$$




USA.gov is the U.S. government's official web portal to all federal, state and local government web resources and services.